Time,TemperatureF,DewpointF,PressureIn,WindDirection,WindDirectionDegrees,WindSpeedMPH,WindSpeedGustMPH,Humidity,HourlyPrecipIn,Conditions,Clouds,dailyrainin,SoftwareType,DateUTC
2013-07-23 00:00:00,82.2,76.2,30.10,SE,137,3.0,3.0,82,0.00,,,0.00,Wunderground v.1.15,2013-07-23 04:00:00,
2013-07-23 00:05:00,82.2,76.2,30.11,ESE,123,4.0,4.0,82,0.00,,,0.00,Wunderground v.1.15,2013-07-23 04:05:00,
2013-07-23 00:10:00,82.2,76.2,30.11,SE,132,3.0,4.0,82,0.00,,,0.00,Wunderground v.1.15,2013-07-23 04:10:00,
2013-07-23 00:20:00,82.2,76.2,30.11,SE,125,4.0,4.0,82,0.00,,,0.00,Wunderground v.1.15,2013-07-23 04:20:00,
2013-07-23 00:25:00,82.2,76.2,30.11,ESE,119,4.0,4.0,82,0.00,,,0.00,Wunderground v.1.15,2013-07-23 04:25:00,
2013-07-23 00:35:00,82.1,76.1,30.12,East,84,2.0,3.0,82,0.00,,,0.00,Wunderground v.1.15,2013-07-23 04:35:00,
2013-07-23 00:45:00,82.1,76.1,30.11,ESE,120,3.0,4.0,82,0.00,,,0.00,Wunderground v.1.15,2013-07-23 04:45:00,
2013-07-23 00:50:00,82.1,76.1,30.11,ESE,120,3.0,3.0,82,0.00,,,0.00,Wunderground v.1.15,2013-07-23 04:50:00,
2013-07-23 01:00:00,82.1,76.1,30.11,ESE,120,3.0,3.0,82,0.00,,,0.00,Wunderground v.1.15,2013-07-23 05:00:00,
2013-07-23 01:10:00,82.0,75.6,30.10,ESE,123,3.0,3.0,81,0.00,,,0.00,Wunderground v.1.15,2013-07-23 05:10:00,
2013-07-23 01:20:00,82.0,75.6,30.10,ESE,112,4.0,6.0,81,0.00,,,0.00,Wunderground v.1.15,2013-07-23 05:20:00,
2013-07-23 01:30:00,82.1,76.1,30.10,SE,135,3.0,4.0,82,0.00,,,0.00,Wunderground v.1.15,2013-07-23 05:30:00,
2013-07-23 01:40:00,82.0,76.0,30.10,SE,125,3.0,3.0,82,0.00,,,0.00,Wunderground v.1.15,2013-07-23 05:40:00,
2013-07-23 01:50:00,81.9,75.9,30.10,SE,128,2.0,5.0,82,0.00,,,0.00,Wunderground v.1.15,2013-07-23 05:50:00,
2013-07-23 02:00:00,81.9,75.9,30.09,SW,232,2.0,2.0,82,0.00,,,0.00,Wunderground v.1.15,2013-07-23 06:00:00,
2013-07-23 02:10:00,81.9,76.2,30.09,SSE,148,3.0,3.0,83,0.00,,,0.00,Wunderground v.1.15,2013-07-23 06:10:00,
2013-07-23 02:20:00,81.9,76.6,30.08,South,180,3.0,3.0,84,0.00,,,0.00,Wunderground v.1.15,2013-07-23 06:20:00,
2013-07-23 02:25:00,81.9,76.9,30.08,SE,131,3.0,3.0,85,0.00,,,0.00,Wunderground v.1.15,2013-07-23 06:25:00,
2013-07-23 02:35:00,81.7,76.7,30.08,SE,141,3.0,3.0,85,0.00,,,0.00,Wunderground v.1.15,2013-07-23 06:35:00,
2013-07-23 02:45:00,81.6,76.6,30.08,SSW,212,1.0,2.0,85,0.00,,,0.00,Wunderground v.1.15,2013-07-23 06:45:00,
2013-07-23 02:55:00,81.4,76.8,30.08,WSW,240,1.0,1.0,86,0.00,,,0.00,Wunderground v.1.15,2013-07-23 06:55:00,
2013-07-23 03:00:00,81.3,76.7,30.08,SW,217,1.0,1.0,86,0.00,,,0.00,Wunderground v.1.15,2013-07-23 07:00:00,
2013-07-23 03:10:00,81.1,76.5,30.08,SSW,198,0.0,3.0,86,0.00,,,0.00,Wunderground v.1.15,2013-07-23 07:10:00,
2013-07-23 03:20:00,80.7,76.1,30.08,WSW,249,1.0,1.0,86,0.00,,,0.00,Wunderground v.1.15,2013-07-23 07:20:00,
2013-07-23 03:30:00,80.0,75.8,30.08,West,259,0.0,0.0,87,0.00,,,0.00,Wunderground v.1.15,2013-07-23 07:30:00,
2013-07-23 03:40:00,79.6,75.4,30.08,West,259,0.0,0.0,87,0.00,,,0.00,Wunderground v.1.15,2013-07-23 07:40:00,
2013-07-23 03:50:00,79.3,75.4,30.08,WSW,258,0.0,0.0,88,0.00,,,0.00,Wunderground v.1.15,2013-07-23 07:50:00,
2013-07-23 04:00:00,79.2,75.3,30.08,West,259,0.0,1.0,88,0.00,,,0.00,Wunderground v.1.15,2013-07-23 08:00:00,
2013-07-23 04:10:00,79.0,75.5,30.07,WSW,258,1.0,1.0,89,0.00,,,0.00,Wunderground v.1.15,2013-07-23 08:10:00,
2013-07-23 04:20:00,78.9,75.4,30.07,West,259,0.0,0.0,89,0.00,,,0.00,Wunderground v.1.15,2013-07-23 08:20:00,
2013-07-23 04:30:00,78.8,75.3,30.07,West,259,0.0,0.0,89,0.00,,,0.00,Wunderground v.1.15,2013-07-23 08:30:00,
2013-07-23 04:40:00,78.7,75.5,30.06,WSW,258,0.0,0.0,90,0.00,,,0.00,Wunderground v.1.15,2013-07-23 08:40:00,
2013-07-23 04:50:00,78.4,75.2,30.06,West,259,0.0,0.0,90,0.00,,,0.00,Wunderground v.1.15,2013-07-23 08:50:00,
2013-07-23 05:00:00,78.3,75.5,30.06,West,259,0.0,0.0,91,0.00,,,0.00,Wunderground v.1.15,2013-07-23 09:00:00,
2013-07-23 05:09:00,78.1,75.3,30.06,WSW,258,0.0,0.0,91,0.00,,,0.00,Wunderground v.1.15,2013-07-23 09:09:00,
2013-07-23 05:15:00,78.1,75.3,30.06,West,259,0.0,0.0,91,0.00,,,0.00,Wunderground v.1.15,2013-07-23 09:15:00,
2013-07-23 05:25:00,77.9,75.1,30.06,West,259,0.0,0.0,91,0.00,,,0.00,Wunderground v.1.15,2013-07-23 09:25:00,
2013-07-23 05:35:00,77.6,75.1,30.06,WSW,258,0.0,0.0,92,0.00,,,0.00,Wunderground v.1.15,2013-07-23 09:35:00,
2013-07-23 05:45:00,77.5,75.0,30.07,West,259,0.0,0.0,92,0.00,,,0.00,Wunderground v.1.15,2013-07-23 09:45:00,
2013-07-23 05:55:00,77.5,75.3,30.07,West,259,0.0,0.0,93,0.00,,,0.00,Wunderground v.1.15,2013-07-23 09:55:00,
2013-07-23 06:00:00,77.7,75.5,30.07,WSW,258,0.0,0.0,93,0.00,,,0.00,Wunderground v.1.15,2013-07-23 10:00:00,
2013-07-23 06:10:00,77.8,75.6,30.07,WSW,258,0.0,0.0,93,0.00,,,0.00,Wunderground v.1.15,2013-07-23 10:10:00,
2013-07-23 06:19:00,77.9,75.4,30.07,West,259,0.0,0.0,92,0.00,,,0.00,Wunderground v.1.15,2013-07-23 10:19:00,
2013-07-23 06:25:00,78.1,75.9,30.07,West,259,0.0,0.0,93,0.00,,,0.00,Wunderground v.1.15,2013-07-23 10:25:00,
2013-07-23 06:35:00,78.0,75.5,30.07,West,259,0.0,0.0,92,0.00,,,0.00,Wunderground v.1.15,2013-07-23 10:35:00,
2013-07-23 06:45:00,78.1,75.6,30.07,WSW,258,0.0,0.0,92,0.00,,,0.00,Wunderground v.1.15,2013-07-23 10:45:00,
2013-07-23 06:50:00,78.2,75.7,30.07,West,259,0.0,0.0,92,0.00,,,0.00,Wunderground v.1.15,2013-07-23 10:50:00,
2013-07-23 07:00:00,78.3,75.8,30.08,West,259,0.0,0.0,92,0.00,,,0.00,Wunderground v.1.15,2013-07-23 11:00:00,
2013-07-23 07:10:00,78.1,75.6,30.08,West,259,0.0,0.0,92,0.00,,,0.00,Wunderground v.1.15,2013-07-23 11:10:00,
2013-07-23 07:20:00,78.1,75.6,30.08,West,259,0.0,0.0,92,0.00,,,0.00,Wunderground v.1.15,2013-07-23 11:20:00,
2013-07-23 07:30:00,78.5,76.0,30.09,West,259,0.0,0.0,92,0.00,,,0.00,Wunderground v.1.15,2013-07-23 11:30:00,
2013-07-23 07:40:00,78.9,76.4,30.09,West,259,0.0,0.0,92,0.00,,,0.00,Wunderground v.1.15,2013-07-23 11:40:00,
2013-07-23 07:50:00,79.5,76.6,30.09,West,266,0.0,0.0,91,0.00,,,0.00,Wunderground v.1.15,2013-07-23 11:50:00,
2013-07-23 08:00:00,80.0,76.8,30.09,WSW,243,2.0,2.0,90,0.00,,,0.00,Wunderground v.1.15,2013-07-23 12:00:00,
2013-07-23 08:10:00,80.5,77.0,30.09,WSW,255,0.0,0.0,89,0.00,,,0.00,Wunderground v.1.15,2013-07-23 12:10:00,
2013-07-23 08:20:00,81.3,77.7,30.09,West,278,0.0,0.0,89,0.00,,,0.00,Wunderground v.1.15,2013-07-23 12:20:00,
2013-07-23 08:30:00,82.0,77.4,30.09,West,274,1.0,2.0,86,0.00,,,0.00,Wunderground v.1.15,2013-07-23 12:30:00,
2013-07-23 08:35:00,82.1,77.5,30.09,WSW,248,0.0,2.0,86,0.00,,,0.00,Wunderground v.1.15,2013-07-23 12:35:00,
2013-07-23 08:45:00,82.1,77.5,30.09,SW,221,0.0,0.0,86,0.00,,,0.00,Wunderground v.1.15,2013-07-23 12:45:00,
2013-07-23 08:55:00,82.1,77.5,30.09,SW,224,0.0,0.0,86,0.00,,,0.00,Wunderground v.1.15,2013-07-23 12:55:00,
2013-07-23 09:00:00,82.6,78.0,30.09,SW,231,0.0,0.0,86,0.00,,,0.00,Wunderground v.1.15,2013-07-23 13:00:00,
2013-07-23 09:10:00,83.7,78.3,30.09,NE,42,0.0,0.0,84,0.00,,,0.00,Wunderground v.1.15,2013-07-23 13:10:00,
2013-07-23 09:20:00,85.2,78.7,30.09,SW,230,0.0,0.0,81,0.00,,,0.00,Wunderground v.1.15,2013-07-23 13:20:00,
2013-07-23 09:30:00,85.0,78.1,30.09,SW,215,1.0,1.0,80,0.00,,,0.00,Wunderground v.1.15,2013-07-23 13:30:00,
2013-07-23 09:40:00,84.7,77.8,30.08,SSW,211,1.0,1.0,80,0.00,,,0.00,Wunderground v.1.15,2013-07-23 13:40:00,
2013-07-23 09:50:00,85.3,78.4,30.08,SSE,164,1.0,1.0,80,0.00,,,0.00,Wunderground v.1.15,2013-07-23 13:50:00,
2013-07-23 10:00:00,85.1,77.8,30.09,South,176,3.0,3.0,79,0.00,,,0.00,Wunderground v.1.15,2013-07-23 14:00:00,
2013-07-23 10:10:00,85.1,78.6,30.09,NE,46,2.0,2.0,81,0.00,,,0.00,Wunderground v.1.15,2013-07-23 14:10:00,
2013-07-23 10:20:00,85.1,77.5,30.08,ENE,72,3.0,3.0,78,0.00,,,0.00,Wunderground v.1.15,2013-07-23 14:20:00,
2013-07-23 10:30:00,85.2,76.4,30.08,ESE,120,4.0,4.0,75,0.00,,,0.00,Wunderground v.1.15,2013-07-23 14:30:00,
2013-07-23 10:39:00,85.6,77.9,30.09,ESE,117,3.0,8.0,78,0.00,,,0.00,Wunderground v.1.15,2013-07-23 14:39:00,
2013-07-23 10:45:00,85.6,78.3,30.08,SE,139,4.0,8.0,79,0.00,,,0.00,Wunderground v.1.15,2013-07-23 14:45:00,
2013-07-23 10:55:00,85.8,77.8,30.08,East,93,4.0,6.0,77,0.00,,,0.00,Wunderground v.1.15,2013-07-23 14:55:00,
2013-07-23 11:00:00,86.0,77.9,30.08,South,185,4.0,4.0,77,0.00,,,0.00,Wunderground v.1.15,2013-07-23 15:00:00,
2013-07-23 11:10:00,86.0,77.9,30.08,East,94,4.0,4.0,77,0.00,,,0.00,Wunderground v.1.15,2013-07-23 15:10:00,
2013-07-23 11:20:00,86.4,78.3,30.08,East,92,4.0,4.0,77,0.00,,,0.00,Wunderground v.1.15,2013-07-23 15:20:00,
2013-07-23 11:30:00,86.2,77.7,30.08,East,101,4.0,5.0,76,0.00,,,0.00,Wunderground v.1.15,2013-07-23 15:30:00,
2013-07-23 11:40:00,86.5,78.0,30.08,ESE,109,5.0,9.0,76,0.00,,,0.00,Wunderground v.1.15,2013-07-23 15:40:00,
2013-07-23 11:50:00,86.5,78.4,30.07,ESE,120,6.0,6.0,77,0.00,,,0.00,Wunderground v.1.15,2013-07-23 15:50:00,
2013-07-23 12:00:00,86.5,78.0,30.07,SSE,157,5.0,9.0,76,0.00,,,0.00,Wunderground v.1.15,2013-07-23 16:00:00,
2013-07-23 12:10:00,87.1,79.0,30.08,SSE,150,5.0,9.0,77,0.00,,,0.00,Wunderground v.1.15,2013-07-23 16:10:00,
2013-07-23 12:20:00,86.9,78.4,30.07,SE,140,5.0,5.0,76,0.00,,,0.00,Wunderground v.1.15,2013-07-23 16:20:00,
2013-07-23 12:30:00,87.5,78.6,30.07,East,94,5.0,5.0,75,0.00,,,0.00,Wunderground v.1.15,2013-07-23 16:30:00,
2013-07-23 12:40:00,86.9,78.8,30.07,SE,139,5.0,7.0,77,0.00,,,0.00,Wunderground v.1.15,2013-07-23 16:40:00,
2013-07-23 12:50:00,85.5,77.9,30.07,ESE,107,6.0,7.0,78,0.00,,,0.00,Wunderground v.1.15,2013-07-23 16:50:00,
2013-07-23 13:00:00,82.1,75.3,30.08,West,273,5.0,5.0,80,1.40,,,0.06,Wunderground v.1.15,2013-07-23 17:00:00,
2013-07-23 13:10:00,80.3,76.1,30.08,SW,221,1.0,1.0,87,0.27,,,0.21,Wunderground v.1.15,2013-07-23 17:10:00,
2013-07-23 13:20:00,79.3,74.7,30.07,SE,127,1.0,1.0,86,0.14,,,0.23,Wunderground v.1.15,2013-07-23 17:20:00,
2013-07-23 13:29:00,80.1,75.5,30.06,SW,232,0.0,3.0,86,0.05,,,0.23,Wunderground v.1.15,2013-07-23 17:29:00,
2013-07-23 13:35:00,80.4,75.8,30.06,SSW,194,2.0,3.0,86,0.00,,,0.23,Wunderground v.1.15,2013-07-23 17:35:00,
2013-07-23 13:45:00,81.7,76.4,30.06,SSE,157,2.0,3.0,84,0.00,,,0.23,Wunderground v.1.15,2013-07-23 17:45:00,
2013-07-23 13:55:00,82.8,75.2,30.05,SW,222,3.0,3.0,78,0.00,,,0.23,Wunderground v.1.15,2013-07-23 17:55:00,
2013-07-23 14:00:00,83.3,75.3,30.06,SW,231,3.0,3.0,77,0.00,,,0.23,Wunderground v.1.15,2013-07-23 18:00:00,
2013-07-23 14:09:00,83.8,75.0,30.05,SSE,150,2.0,2.0,75,0.00,,,0.23,Wunderground v.1.15,2013-07-23 18:09:00,
2013-07-23 14:20:00,85.1,75.1,30.05,ESE,115,2.0,3.0,72,0.00,,,0.23,Wunderground v.1.15,2013-07-23 18:20:00,
2013-07-23 14:30:00,85.8,75.3,30.04,ESE,110,3.0,3.0,71,0.00,,,0.23,Wunderground v.1.15,2013-07-23 18:30:00,
2013-07-23 14:40:00,86.0,75.5,30.04,ESE,120,2.0,4.0,71,0.00,,,0.23,Wunderground v.1.15,2013-07-23 18:40:00,
2013-07-23 14:50:00,86.7,74.4,30.03,South,170,3.0,3.0,67,0.00,,,0.23,Wunderground v.1.15,2013-07-23 18:50:00,
2013-07-23 15:05:00,87.1,77.4,30.03,SE,146,3.0,6.0,73,0.00,,,0.23,Wunderground v.1.15,2013-07-23 19:05:00,
2013-07-23 15:15:00,87.8,78.1,30.03,SE,136,4.0,4.0,73,0.00,,,0.23,Wunderground v.1.15,2013-07-23 19:15:00,
2013-07-23 15:25:00,88.0,77.8,30.02,ENE,76,4.0,4.0,72,0.00,,,0.23,Wunderground v.1.15,2013-07-23 19:25:00,
2013-07-23 15:35:00,87.9,77.7,30.02,SE,145,4.0,5.0,72,0.00,,,0.23,Wunderground v.1.15,2013-07-23 19:35:00,
2013-07-23 15:50:00,87.8,78.1,30.01,ENE,75,4.0,5.0,73,0.00,,,0.23,Wunderground v.1.15,2013-07-23 19:50:00,
2013-07-23 15:55:00,87.6,78.3,30.01,ESE,106,5.0,5.0,74,0.00,,,0.23,Wunderground v.1.15,2013-07-23 19:55:00,
2013-07-23 16:05:00,87.0,77.7,30.01,SSE,156,6.0,8.0,74,0.00,,,0.23,Wunderground v.1.15,2013-07-23 20:05:00,
2013-07-23 16:15:00,86.9,77.6,30.01,East,98,6.0,10.0,74,0.00,,,0.23,Wunderground v.1.15,2013-07-23 20:15:00,
2013-07-23 16:25:00,86.8,77.5,30.01,SSE,160,6.0,7.0,74,0.00,,,0.23,Wunderground v.1.15,2013-07-23 20:25:00,
2013-07-23 16:35:00,86.7,77.4,30.00,SE,129,6.0,7.0,74,0.00,,,0.23,Wunderground v.1.15,2013-07-23 20:35:00,
2013-07-23 16:45:00,86.6,77.3,30.00,SE,126,7.0,7.0,74,0.00,,,0.23,Wunderground v.1.15,2013-07-23 20:45:00,
2013-07-23 16:55:00,86.3,77.0,30.00,ESE,117,8.0,10.0,74,0.00,,,0.23,Wunderground v.1.15,2013-07-23 20:55:00,
2013-07-23 17:00:00,86.3,77.4,30.00,ESE,120,7.0,7.0,75,0.00,,,0.23,Wunderground v.1.15,2013-07-23 21:00:00,
2013-07-23 17:10:00,86.1,77.2,30.00,ESE,106,8.0,10.0,75,0.00,,,0.23,Wunderground v.1.15,2013-07-23 21:10:00,
2013-07-23 17:20:00,85.6,77.6,29.99,SE,127,8.0,9.0,77,0.00,,,0.23,Wunderground v.1.15,2013-07-23 21:20:00,
2013-07-23 17:25:00,85.6,77.9,29.99,SE,127,8.0,9.0,78,0.00,,,0.23,Wunderground v.1.15,2013-07-23 21:25:00,
2013-07-23 17:35:00,85.5,77.1,29.99,East,98,8.0,8.0,76,0.00,,,0.23,Wunderground v.1.15,2013-07-23 21:35:00,
2013-07-23 17:40:00,85.4,77.0,29.99,ESE,110,7.0,7.0,76,0.00,,,0.23,Wunderground v.1.15,2013-07-23 21:40:00,
2013-07-23 17:50:00,85.0,76.2,29.99,SE,142,7.0,8.0,75,0.00,,,0.23,Wunderground v.1.15,2013-07-23 21:50:00,
2013-07-23 18:00:00,85.7,76.9,29.99,ESE,117,7.0,11.0,75,0.00,,,0.23,Wunderground v.1.15,2013-07-23 22:00:00,
2013-07-23 18:10:00,85.8,77.0,29.99,SE,126,7.0,9.0,75,0.00,,,0.23,Wunderground v.1.15,2013-07-23 22:10:00,
2013-07-23 18:20:00,85.3,76.1,29.99,ESE,103,10.0,10.0,74,0.00,,,0.23,Wunderground v.1.15,2013-07-23 22:20:00,
2013-07-23 18:30:00,85.3,76.5,29.99,East,94,9.0,9.0,75,0.00,,,0.23,Wunderground v.1.15,2013-07-23 22:30:00,
2013-07-23 18:35:00,85.4,77.0,29.99,ESE,114,8.0,9.0,76,0.00,,,0.23,Wunderground v.1.15,2013-07-23 22:35:00,
2013-07-23 18:45:00,85.3,76.5,29.99,ENE,69,7.0,8.0,75,0.00,,,0.23,Wunderground v.1.15,2013-07-23 22:45:00,
2013-07-23 18:55:00,85.5,76.7,29.99,ESE,105,6.0,8.0,75,0.00,,,0.23,Wunderground v.1.15,2013-07-23 22:55:00,
2013-07-23 19:00:00,85.6,76.8,29.99,ESE,112,6.0,6.0,75,0.00,,,0.23,Wunderground v.1.15,2013-07-23 23:00:00,
2013-07-23 19:10:00,85.4,76.6,29.99,South,179,6.0,6.0,75,0.00,,,0.23,Wunderground v.1.15,2013-07-23 23:10:00,
2013-07-23 19:15:00,85.1,76.3,29.99,SSE,160,5.0,7.0,75,0.00,,,0.23,Wunderground v.1.15,2013-07-23 23:15:00,
2013-07-23 19:25:00,85.0,76.2,29.99,ESE,109,6.0,7.0,75,0.00,,,0.23,Wunderground v.1.15,2013-07-23 23:25:00,
2013-07-23 19:35:00,84.8,76.4,29.98,SE,132,6.0,6.0,76,0.00,,,0.23,Wunderground v.1.15,2013-07-23 23:35:00,
2013-07-23 19:45:00,84.5,76.5,29.99,SSE,165,6.0,6.0,77,0.00,,,0.23,Wunderground v.1.15,2013-07-23 23:45:00,
2013-07-23 19:55:00,84.3,76.3,29.98,SE,130,5.0,7.0,77,0.00,,,0.23,Wunderground v.1.15,2013-07-23 23:55:00,
2013-07-23 20:04:00,84.1,76.1,29.99,SSE,156,4.0,4.0,77,0.00,,,0.23,Wunderground v.1.15,2013-07-24 00:04:00,
2013-07-23 20:10:00,84.0,76.4,29.99,SE,135,3.0,5.0,78,0.00,,,0.23,Wunderground v.1.15,2013-07-24 00:10:00,
2013-07-23 20:20:00,83.8,75.8,29.99,SSW,205,3.0,3.0,77,0.00,,,0.23,Wunderground v.1.15,2013-07-24 00:20:00,
2013-07-23 20:30:00,83.6,76.0,29.98,ESE,110,3.0,3.0,78,0.00,,,0.23,Wunderground v.1.15,2013-07-24 00:30:00,
2013-07-23 20:40:00,83.6,76.0,29.98,SSW,202,3.0,3.0,78,0.00,,,0.23,Wunderground v.1.15,2013-07-24 00:40:00,
2013-07-23 20:45:00,83.6,76.0,29.98,SSE,162,2.0,3.0,78,0.00,,,0.23,Wunderground v.1.15,2013-07-24 00:45:00,
2013-07-23 20:54:00,83.4,75.8,29.98,SSE,148,2.0,3.0,78,0.00,,,0.23,Wunderground v.1.15,2013-07-24 00:54:00,
2013-07-23 21:00:00,83.3,75.7,29.99,SE,141,2.0,2.0,78,0.00,,,0.23,Wunderground v.1.15,2013-07-24 01:00:00,
2013-07-23 21:09:00,83.3,75.7,29.99,SSE,151,2.0,2.0,78,0.00,,,0.23,Wunderground v.1.15,2013-07-24 01:09:00,
2013-07-23 21:15:00,83.2,75.2,29.99,South,169,2.0,4.0,77,0.00,,,0.23,Wunderground v.1.15,2013-07-24 01:15:00,
2013-07-23 21:25:00,83.3,75.3,30.00,SE,142,2.0,3.0,77,0.00,,,0.23,Wunderground v.1.15,2013-07-24 01:25:00,
2013-07-23 21:35:00,83.3,75.7,30.01,SSW,204,2.0,2.0,78,0.00,,,0.23,Wunderground v.1.15,2013-07-24 01:35:00,
2013-07-23 21:45:00,83.5,75.9,30.01,SE,124,3.0,4.0,78,0.00,,,0.23,Wunderground v.1.15,2013-07-24 01:45:00,
2013-07-23 21:55:00,83.4,75.8,30.01,South,191,3.0,4.0,78,0.00,,,0.23,Wunderground v.1.15,2013-07-24 01:55:00,
2013-07-23 22:00:00,83.4,75.4,30.02,WSW,243,3.0,3.0,77,0.00,,,0.23,Wunderground v.1.15,2013-07-24 02:00:00,
2013-07-23 22:10:00,83.3,75.3,30.02,SW,215,2.0,2.0,77,0.00,,,0.23,Wunderground v.1.15,2013-07-24 02:10:00,
2013-07-23 22:20:00,83.4,75.4,30.02,South,174,3.0,3.0,77,0.00,,,0.23,Wunderground v.1.15,2013-07-24 02:20:00,
2013-07-23 22:25:00,83.4,75.0,30.02,SW,215,3.0,4.0,76,0.00,,,0.23,Wunderground v.1.15,2013-07-24 02:25:00,
2013-07-23 22:35:00,83.5,75.5,30.02,SSW,194,2.0,3.0,77,0.00,,,0.23,Wunderground v.1.15,2013-07-24 02:35:00,
2013-07-23 22:40:00,83.5,75.5,30.02,SSW,203,2.0,3.0,77,0.00,,,0.23,Wunderground v.1.15,2013-07-24 02:40:00,
2013-07-23 22:50:00,83.5,75.9,30.02,South,183,2.0,2.0,78,0.00,,,0.23,Wunderground v.1.15,2013-07-24 02:50:00,
2013-07-23 23:00:00,83.3,75.7,30.03,SSW,195,2.0,5.0,78,0.00,,,0.23,Wunderground v.1.15,2013-07-24 03:00:00,
2013-07-23 23:10:00,83.3,75.7,30.03,SE,144,3.0,3.0,78,0.00,,,0.23,Wunderground v.1.15,2013-07-24 03:10:00,
2013-07-23 23:15:00,83.3,76.1,30.03,SSW,207,3.0,3.0,79,0.00,,,0.23,Wunderground v.1.15,2013-07-24 03:15:00,
2013-07-23 23:24:00,83.3,76.1,30.03,SSE,153,2.0,2.0,79,0.00,,,0.23,Wunderground v.1.15,2013-07-24 03:24:00,
2013-07-23 23:30:00,83.3,76.1,30.03,South,183,2.0,3.0,79,0.00,,,0.23,Wunderground v.1.15,2013-07-24 03:30:00,
2013-07-23 23:40:00,83.3,76.1,30.03,SW,217,3.0,3.0,79,0.00,,,0.23,Wunderground v.1.15,2013-07-24 03:40:00,
2013-07-23 23:45:00,83.2,76.0,30.03,SSW,212,3.0,3.0,79,0.00,,,0.23,Wunderground v.1.15,2013-07-24 03:45:00,
2013-07-23 23:54:00,83.2,76.0,30.03,SW,214,2.0,4.0,79,0.00,,,0.23,Wunderground v.1.15,2013-07-24 03:54:00,